EW2958 Weather Reports


Display with metric or nautical units.
time (UTC)temp
F
wind
direction
speed
MPH
gust
MPH
rain 1hr
in
rain 24hr
in
rain mn
in
humidity
%
barometer
mb
20260904154513 57 360 8.0 15.0 0.00 0.11 0.02 80 1006.7
20260904153010 57 41 5.0 13.0 0.00 0.11 0.02 81 1007.0
20260904151507 57 6 8.0 13.0 0.00 0.11 0.02 81 1008.0
20260904150009 56 6 7.0 15.0 0.02 0.11 0.02 83 1008.2
20260904144601 56 4 7.0 14.0 0.06 0.11 0.02 83 1008.6
20260904143101 55 14 3.0 6.0 0.06 0.11 0.02 84 1008.6
20260904141554 56 9 4.0 6.0 0.08 0.11 0.02 84 1009.2
20260904140052 56 328 2.0 7.0 0.06 0.09 0.00 83 1009.7
20260904134548 57 342 7.0 13.0 0.03 0.05 0.05 81 1009.5
20260904133054 57 51 5.0 15.0 0.03 0.05 0.05 81 1009.8
20260904131544 56 24 6.0 11.0 0.02 0.03 0.03 80 1010.2
20260904130042 56 18 2.0 6.0 0.01 0.02 0.02 79 1010.1
20260904124545 56 352 4.0 11.0 0.00 0.02 0.02 79 1010.4
20260904123103 55 41 2.0 6.0 0.00 0.02 0.02 81 1010.4
20260904121537 54 30 2.0 3.0 0.01 0.02 0.02 82 1011.1
20260904120039 54 89 0.0 1.0 0.01 0.02 0.02 83 1011.3
20260904114537 55 89 1.0 3.0 0.01 0.02 0.02 82 1011.2
20260904113042 55 93 0.0 2.0 0.01 0.02 0.02 81 1011.5
20260904111530 55 75 1.0 6.0 0.00 0.01 0.01 79 1011.8
20260904110037 57 352 2.0 8.0 0.01 0.01 0.01 76 1011.9
20260904104527 55 46 4.0 8.0 0.01 0.01 0.01 80 1012.2
20260904103026 54 96 0.0 3.0 0.01 0.01 0.01 80 1012.4
20260904101525 55 91 1.0 4.0 0.01 0.01 0.01 76 1012.5
20260904100023 56 86 0.0 2.0 0.00 0.00 0.00 73 1012.7
20260904094522 56 107 0.0 3.0 0.00 0.00 0.00 70 1012.6
20260904093021 56 90 0.0 2.0 0.00 0.00 0.00 70 1012.8
20260904091522 57 100 1.0 3.0 0.00 0.00 0.00 68 1012.8
20260904090021 57 49 0.0 3.0 0.00 0.00 0.00 68 1012.8
20260904084520 57 90 1.0 6.0 0.00 0.00 0.00 67 1012.6
20260904083017 57 37 6.0 10.0 0.00 0.00 0.00 68 1012.8
20260904081516 57 30 5.0 10.0 0.00 0.00 0.00 68 1012.8
20260904080014 58 40 2.0 4.0 0.00 0.00 0.00 67 1013.0
20260904074516 59 349 2.0 5.0 0.00 0.00 0.00 64 1013.1
20260904073014 60 16 2.0 5.0 0.00 0.00 0.00 63 1013.2
20260904071513 59 302 3.0 7.0 0.00 0.00 0.00 63 1013.1
20260904070033 60 330 4.0 12.0 0.00 0.00 0.00 61 1013.3
20260904064509 60 320 5.0 10.0 0.00 0.00 0.00 62 1013.6
20260904063012 60 300 5.0 13.0 0.00 0.00 0.00 62 1013.7
20260904061506 61 329 5.0 14.0 0.00 0.00 0.00 61 1013.9
20260904060007 61 326 5.0 15.0 0.00 0.00 0.00 60 1014.0
20260904054505 61 339 5.0 12.0 0.00 0.00 0.00 59 1014.2
20260904053003 61 318 4.0 9.0 0.00 0.00 0.00 57 1014.4
20260904051558 61 300 2.0 9.0 0.00 0.00 0.00 58 1014.5
20260904050053 61 336 4.0 9.0 0.00 0.00 0.00 57 1014.6
20260904044554 61 334 4.0 12.0 0.00 0.00 0.00 56 1014.7
20260904043050 61 288 8.0 18.0 0.00 0.00 0.00 57 1014.8
20260904041554 61 307 4.0 12.0 0.00 0.00 0.00 56 1014.8
20260904040046 60 314 3.0 10.0 0.00 0.00 0.00 58 1014.9
20260904034552 59 282 9.0 16.0 0.00 0.00 0.00 55 1014.9
20260904033040 59 340 7.0 14.0 0.00 0.00 0.00 55 1015.4
20260904031542 58 270 9.0 19.0 0.00 0.00 0.00 56 1015.6
20260904030035 58 285 9.0 17.0 0.00 0.00 0.00 55 1015.7
20260904024531 59 273 4.0 13.0 0.00 0.00 0.00 52 1016.0
20260904023028 58 265 4.0 13.0 0.00 0.00 0.00 54 1016.4
20260904021522 58 280 5.0 13.0 0.00 0.00 0.00 55 1016.8
20260904020019 57 257 6.0 14.0 0.00 0.00 0.00 55 1017.1
20260904014515 57 282 6.0 13.0 0.00 0.00 0.00 55 1017.4
20260904013012 56 285 5.0 12.0 0.00 0.00 0.00 55 1017.6
20260904011533 55 277 6.0 16.0 0.00 0.00 0.00 54 1017.8
20260904010012 56 266 3.0 10.0 0.00 0.00 0.00 54 1017.9
20260904004537 55 328 3.0 12.0 0.00 0.02 0.00 56 1018.1
20260904003036 55 263 3.0 16.0 0.00 0.02 0.00 59 1018.4
20260904001535 55 243 4.0 15.0 0.00 0.02 0.00 58 1018.7
20260904000040 54 271 7.0 17.0 0.00 0.02 0.00 55 1018.8
20260903234539 54 288 6.0 16.0 0.00 0.02 0.00 58 1018.9
20260903233030 54 271 3.0 8.0 0.00 0.02 0.00 62 1018.8
20260903231527 53 267 3.0 10.0 0.00 0.02 0.00 63 1018.8
20260903230033 52 278 3.0 10.0 0.00 0.02 0.00 67 1019.2
20260903224510 51 320 2.0 8.0 0.00 0.02 0.00 70 1019.2
20260903223006 49 304 3.0 9.0 0.00 0.02 0.00 72 1019.2
20260903221503 47 257 2.0 6.0 0.00 0.02 0.00 75 1019.1
20260903220122 45 289 1.0 6.0 0.00 0.02 0.00 77 1019.1
20260903214559 44 272 1.0 2.0 0.00 0.02 0.00 77 1018.8
20260903213104 43 275 0.0 3.0 0.00 0.02 0.00 77 1018.6
20260903211601 42 345 1.0 3.0 0.00 0.02 0.00 79 1018.5
20260903210106 41 345 0.0 1.0 0.00 0.02 0.00 80 1018.3
20260903204554 42 345 1.0 3.0 0.00 0.02 0.00 79 1018.2
20260903203118 42 352 1.0 2.0 0.00 0.02 0.00 79 1018.1
20260903201552 41 356 0.0 1.0 0.00 0.02 0.00 79 1018.0
20260903200050 42 356 0.0 2.0 0.00 0.02 0.00 79 1017.9
20260903194551 42 152 0.0 1.0 0.00 0.02 0.00 80 1017.8
20260903193043 41 276 0.0 0.0 0.00 0.02 0.00 80 1017.8
20260903191540 42 276 0.0 2.0 0.00 0.02 0.00 79 1017.7
20260903190038 42 280 2.0 5.0 0.00 0.02 0.00 79 1017.7
20260903184537 42 286 2.0 6.0 0.00 0.02 0.00 79 1017.6
20260903183042 42 278 2.0 6.0 0.00 0.02 0.00 79 1017.5
20260903181534 43 277 2.0 7.0 0.00 0.02 0.00 79 1017.4
20260903180032 42 295 2.0 5.0 0.00 0.02 0.00 80 1017.6
20260903174530 42 269 4.0 7.0 0.00 0.02 0.00 81 1017.6
20260903173047 42 291 1.0 6.0 0.00 0.02 0.00 82 1017.7
20260903171558 42 283 4.0 7.0 0.00 0.02 0.00 82 1017.9
20260903170043 43 290 3.0 6.0 0.00 0.02 0.00 81 1018.0
20260903164601 43 287 2.0 5.0 0.00 0.02 0.00 81 1018.1
20260903163039 43 283 2.0 5.0 0.00 0.02 0.00 81 1018.2
20260903161536 43 274 2.0 8.0 0.00 0.02 0.00 81 1018.4
20260903160036 43 287 3.0 6.0 0.00 0.02 0.00 80 1018.5